Flag for Bangladesh Weather past 2 weeks in Rajshahi, Bangladesh

Now
77 °F

Fog.


Feels Like: 79 °F
Forecast: 69 / 89 °F
Wind: 9 mph from Southwest

Location: Calcutta / Dum Dum

Current Time: Feb 28, 2015 at 8:48:33 AM

Latest Report: Feb 28, 2015 at 8:20 AM


Visibility: 2 mi

Pressure: 29.89 "Hg

Humidity: 79%

Dew point: 70 °F

Location of RajshahiLocation

Historic Weather in Rajshahi — Graph

°F

Rajshahi temperature yesterday

Maximum temperature yesterday: 93 °F (at 1:50 PM)
Minimum temperature yesterday: 72 °F (at 4:50 AM)
Average temperature yesterday: 81 °F

Past Weeks' High & Low Weather Summary

 TemperatureHumidityPressure
High93 °F (Feb 21, 5:50 PM)100% (Feb 15, 4:50 AM)30.01 "Hg (Feb 15, 4:50 AM)
Low59 °F (Feb 14, 6:20 AM)32% (Feb 22, 4:20 PM)29.68 "Hg (Feb 26, 6:50 PM)
Average77 °F71%29.86 "Hg
* Reported Feb 13 7:20 AM — Feb 28 7:50 AM, Rajshahi, Weather by CustomWeather, © 2015

Note: Actual official high and low records may vary slightly from our data, if they occured in-between our weather recording intervals... More about our weather records

Advertising

Rajshahi weather history for previous 24 hours

 ConditionsComfort  
Time TempWeatherWind HumidityBarometerVisibility
7:50 AM
Sat, Feb 28
77 °FFog.6 mph83%29.89 "Hg1 mi
7:20 AM75 °FFog.7 mph89%29.86 "Hg1 mi
6:50 AM75 °FFog.7 mph89%29.86 "Hg1 mi
6:20 AM75 °FFog.9 mph89%29.86 "Hg1 mi
5:50 AM75 °FHaze.7 mph78%29.83 "Hg1 mi
5:20 AM75 °FHaze.7 mph78%29.83 "Hg2 mi
4:50 AM77 °FHaze.8 mph79%29.80 "Hg2 mi
4:20 AM77 °FHaze.8 mph79%29.80 "Hg2 mi
3:50 AM77 °FHaze.8 mph79%29.80 "Hg2 mi
3:20 AM77 °FHaze.8 mph79%29.83 "Hg2 mi
2:50 AM77 °FHaze.9 mph79%29.83 "Hg2 mi
2:20 AM77 °FHaze.10 mph79%29.83 "Hg2 mi
1:50 AM77 °FHaze.7 mph79%29.83 "Hg2 mi
1:20 AM77 °FHaze.3 mph79%29.86 "Hg2 mi
12:50 AM77 °FHaze.6 mph79%29.86 "Hg2 mi
12:20 AM77 °FHaze.7 mph79%29.86 "Hg2 mi
11:50 PM
Fri, Feb 27
77 °FHaze.10 mph79%29.86 "Hg2 mi
11:20 PM79 °FHaze.9 mph74%29.86 "Hg2 mi
10:50 PM79 °FHaze.9 mph70%29.86 "Hg2 mi
10:20 PM79 °FHaze.9 mph70%29.86 "Hg2 mi
9:50 PM79 °FHaze.9 mph70%29.86 "Hg2 mi
9:20 PM79 °FHaze.10 mph70%29.83 "Hg2 mi
8:50 PM79 °FHaze.12 mph70%29.83 "Hg2 mi
8:20 PM81 °FHaze.12 mph66%29.83 "Hg2 mi
7:50 PM82 °FHaze.13 mph62%29.80 "Hg2 mi
7:20 PM84 °FHaze.13 mph58%29.80 "Hg2 mi
6:50 PM86 °FHaze.10 mph55%29.77 "Hg2 mi
5:50 PM88 °FHaze.8 mph46%29.77 "Hg2 mi
5:20 PM91 °FHaze.7 mph38%29.74 "Hg2 mi
4:50 PM91 °FHaze.8 mph38%29.74 "Hg2 mi
4:20 PM93 °FHaze.7 mph36%29.74 "Hg2 mi
3:50 PM93 °FHaze.6 mph36%29.74 "Hg2 mi
3:20 PM93 °FHaze.6 mph36%29.74 "Hg2 mi
2:50 PM93 °FHaze.7 mph36%29.77 "Hg2 mi
2:20 PM93 °FHaze.7 mph36%29.77 "Hg2 mi
1:50 PM93 °FHaze.7 mph39%29.80 "Hg1 mi
1:20 PM91 °FHaze.7 mph41%29.80 "Hg1 mi
12:50 PM90 °FHaze.7 mph46%29.83 "Hg1 mi
12:20 PM90 °FHaze.6 mph49%29.83 "Hg1 mi
11:50 AM88 °FHaze.5 mph55%29.86 "Hg1 mi
11:20 AM86 °FHaze.5 mph62%29.86 "Hg1 mi
10:50 AM84 °FHaze.3 mph70%29.89 "Hg1 mi
10:20 AM82 °FHaze.5 mph70%29.89 "Hg1 mi
9:20 AM81 °FHaze.7 mph79%29.89 "Hg1 mi
8:50 AM79 °FFog.6 mph84%29.86 "Hg1 mi
Weather by CustomWeather, © 2015

See weather overviewHow to use our weather pages